Location: Casa Rossa
(45.2389°N, 12.2056°E)
Time: 23:36:23
(UTC+00:00)

CZ-4 R/B - Pass Details

Date: 14 July 2020
Orbit: 682 x 752 km, 98.5° (Epoch: 14 August)

Event Time Altitude Azimuth Distance (km) Brightness Sun altitude
Rises 00:01:38 0° 10° (N) 3,084 8.7 -22.4°
Reaches altitude 10° 00:03:53 10° 6° (N) 2,171 7.5 -22.3°
Maximum altitude 00:08:33 58° 288° (WNW) 829 4.1 -22.1°
Enters shadow 00:09:37 46° 240° (WSW) 953 4.2 -22.1°
